Wind_Speed
22 23 23 23 23 24 24 24 25 24 24 24 23 23 23 24 24 24 24 24 25 25 25 25 25 26 26 26 26 26 26 26 27 26 26 26 26 26 26 26 25 25 25
23 23 23 24 25 25 25 25 25 25 25 25 25 25 25 25 25 25 25 25 25 25 25 25 25 26 26 26 26 27 27 27 28 28 28 28 28 27 27 28 27 27 27
24 24 24 25 26 26 26 26 26 25 26 26 26 26 26 26 26 26 26 26 26 25 25 24 24 25 26 26 27 27 28 28 29 29 29 30 30 30 29 29 29 29 29
27 26 25 26 27 26 26 25 25 25 25 25 26 27 27 27 27 26 26 26 26 26 25 25 25 26 26 27 27 27 27 28 29 30 30 31 31 31 31 30 30 30 30
27 27 27 27 28 27 26 26 25 26 26 27 27 28 28 28 28 27 26 26 26 27 26 26 27 27 27 27 28 28 28 29 29 30 31 32 32 33 32 31 31 31 31
28 28 28 28 28 27 27 28 28 28 28 28 28 28 28 28 27 27 27 27 26 27 27 27 28 28 27 27 28 28 29 30 30 30 31 32 33 34 34 32 32 32 33
29 29 29 29 29 29 30 30 30 30 29 28 28 28 29 29 28 28 28 27 27 28 28 28 29 29 29 28 28 29 29 30 31 31 32 33 33 35 35 35 34 34 34
30 30 30 30 30 31 31 30 30 31 30 30 29 29 29 29 30 29 29 29 28 29 29 29 29 30 30 30 30 30 31 32 32 32 33 34 34 35 36 36 36 36 36
30 30 30 30 30 30 30 30 30 31 30 30 30 29 29 29 30 30 30 30 30 30 30 30 31 31 31 31 31 31 32 32 32 32 32 34 34 34 36 37 37 37 37
30 29 29 30 30 30 30 29 29 29 30 30 30 30 29 29 30 30 30 32 32 32 32 32 32 31 31 32 32 32 31 31 32 32 32 33 34 35 35 36 36 37 37
29 28 29 29 29 29 28 28 28 29 29 30 30 29 29 29 30 30 30 31 32 32 33 32 32 32 32 32 32 31 31 32 33 33 33 33 34 35 36 36 36 36 38
28 28 28 28 28 28 28 28 28 29 29 29 29 29 29 30 30 30 30 29 30 31 32 32 32 32 32 32 32 32 32 33 33 34 35 35 35 35 36 36 36 37 38
28 28 28 28 28 28 27 27 28 28 28 29 29 29 29 30 31 31 31 30 29 30 31 32 32 32 32 32 33 33 33 33 33 34 35 35 35 36 37 37 37 37 36
27 27 27 27 27 26 26 26 26 27 28 29 29 30 30 30 30 30 30 30 30 30 30 31 32 32 33 32 33 33 33 33 34 34 34 34 34 35 36 37 38 38 37
26 25 25 26 26 26 25 26 26 27 28 29 29 30 30 30 29 29 30 30 30 30 30 31 31 31 32 32 32 33 33 33 33 33 34 34 35 36 37 38 38 38 38
24 24 24 25 25 25 25 25 26 27 27 28 29 29 30 30 30 29 30 31 30 31 30 31 32 32 32 31 31 32 33 33 32 33 33 34 35 36 38 38 39 39 40
23 23 23 23 23 23 24 25 25 26 27 27 28 28 29 29 28 28 29 30 31 31 30 30 30 31 30 30 31 31 32 32 32 32 33 34 35 36 37 38 39 40 40
22 22 22 22 22 23 23 24 25 26 26 26 26 27 27 28 28 28 29 29 30 29 29 28 29 29 29 30 30 30 31 31 32 32 32 33 34 35 37 38 39 39 40
21 21 22 22 22 22 23 23 24 25 25 26 26 26 26 27 27 27 28 28 28 29 29 29 29 29 29 30 30 30 30 31 31 31 32 32 33 35 36 37 38 39 40
21 21 22 21 22 23 23 23 24 24 25 25 25 25 26 26 27 27 29 29 29 29 29 28 29 30 30 30 31 31 30 30 31 31 32 32 33 34 35 36 37 38 39
20 21 20 20 21 22 22 23 23 23 24 24 25 25 26 27 28 29 29 29 29 29 28 28 29 30 31 30 30 30 31 31 31 31 32 32 33 33 34 35 37 38 38
19 19 20 20 21 22 22 22 22 23 24 25 25 26 27 28 29 29 29 29 29 29 29 29 30 31 31 32 32 32 32 32 32 32 32 32 32 32 33 35 35 36 37
19 19 20 20 21 22 22 23 24 26 26 26 26 27 28 29 29 29 29 29 29 29 29 29 29 30 31 31 31 32 32 32 31 32 31 31 31 31 33 33 34 34 36
18 19 20 20 21 22 23 24 25 27 27 28 27 28 29 29 30 29 29 28 29 29 30 29 29 29 28 28 29 30 30 30 31 31 30 29 30 31 31 33 33 34 35
18 19 19 20 21 22 24 25 26 28 28 28 28 29 29 29 29 29 28 28 28 28 29 29 28 28 27 27 27 27 28 28 28 29 29 28 28 29 30 31 32 33 34
18 18 20 21 22 23 24 25 27 28 28 28 28 29 29 29 28 28 27 27 27 27 27 26 26 25 25 26 27 26 26 26 26 26 27 27 27 27 28 30 31 32 32
Wind_Direction
286 288 288 289 290 290 290 291 290 289 289 289 290 288 286 285 285 287 283 280 279 278 276 273 270 268 265 263 260 258 257 256 255 254 253 250 249 247 245 243 242 241 241
290 290 287 287 289 289 288 289 289 287 288 289 289 288 286 285 284 284 284 279 277 277 275 272 270 268 265 262 260 259 258 256 255 254 252 250 249 248 246 243 242 242 242
290 290 292 289 289 287 286 287 286 286 286 287 287 287 286 285 285 284 283 278 276 274 273 270 269 268 265 262 261 260 259 257 255 254 253 250 249 248 247 244 243 243 243
292 292 291 289 288 287 285 286 287 285 285 286 286 286 285 285 285 284 281 278 277 274 270 268 268 269 267 264 261 260 259 259 257 255 253 251 249 248 247 245 243 243 242
290 290 289 289 288 286 284 285 287 286 286 286 286 285 285 285 286 284 282 279 279 276 271 269 267 268 266 262 260 259 258 258 257 255 253 252 250 248 247 245 243 243 243
287 288 288 287 287 287 286 287 285 284 284 284 285 285 285 285 285 283 281 279 279 276 272 269 267 266 265 263 261 259 259 259 257 255 254 253 251 248 247 245 244 243 243
285 286 288 289 288 286 287 287 286 284 284 284 285 285 285 284 283 281 279 277 277 276 272 270 268 266 264 264 264 262 261 260 258 257 255 253 252 249 247 246 245 243 243
285 287 288 288 288 288 288 286 284 285 283 283 283 283 282 281 281 280 278 276 277 276 273 270 269 266 265 265 264 263 262 260 259 258 256 254 252 250 247 246 245 243 242
288 288 288 288 288 289 288 285 283 283 283 284 284 283 282 279 279 280 280 278 278 275 273 271 270 269 266 265 265 264 262 261 257 255 256 254 253 251 249 246 245 244 242
292 290 289 288 288 289 288 286 284 284 284 286 285 284 284 282 280 279 279 278 278 276 274 274 273 271 268 267 266 264 262 260 257 256 256 255 253 251 249 247 246 244 242
292 292 292 292 291 290 290 288 286 286 286 286 286 285 283 282 281 280 279 278 276 275 274 274 273 270 268 267 266 264 262 261 258 257 257 256 255 252 250 247 246 245 243
294 293 293 294 293 292 291 292 289 288 288 287 287 287 285 285 284 282 281 279 276 274 274 274 273 271 268 266 265 265 264 262 260 258 257 255 254 252 249 247 246 246 245
295 295 296 298 295 294 294 294 291 289 289 288 288 288 288 288 286 282 282 280 278 277 276 275 274 272 269 266 266 266 265 264 262 260 258 256 253 251 249 247 246 245 245
296 297 299 299 298 297 297 297 294 291 289 289 289 289 289 290 287 283 282 281 279 277 277 276 275 272 270 268 266 265 265 264 262 261 259 257 254 252 250 248 246 246 245
300 300 302 301 300 299 298 298 296 295 293 292 291 290 290 289 287 285 284 283 281 278 277 277 275 273 271 269 267 266 265 264 263 261 259 257 255 252 250 249 247 246 246
306 304 303 303 303 302 300 300 299 297 295 295 293 292 291 290 289 287 286 284 282 281 279 277 274 273 273 270 268 267 265 263 263 262 259 257 256 254 251 249 247 245 245
308 309 307 306 306 306 305 305 304 301 300 299 296 294 294 292 291 290 288 286 285 283 282 279 276 275 274 272 271 267 265 264 263 262 259 258 256 254 251 248 247 246 245
313 312 310 310 311 310 309 308 307 305 304 301 298 296 295 295 294 292 291 290 288 286 285 282 279 277 274 273 271 267 265 265 264 264 262 260 257 255 253 250 248 247 246
318 317 315 315 314 313 312 311 310 307 306 304 300 299 298 298 297 296 296 294 290 288 286 284 282 279 275 272 270 268 267 266 266 264 262 261 258 256 255 252 249 247 246
320 320 319 318 317 317 317 315 313 311 310 308 306 303 301 301 300 298 297 294 290 288 286 283 281 279 277 274 270 269 269 268 267 264 262 261 260 257 255 251 248 246 245
323 323 323 323 322 321 319 318 317 318 317 315 312 308 306 305 302 300 297 294 292 290 286 283 280 278 276 275 272 271 269 269 269 267 264 263 260 257 255 252 249 246 245
326 327 327 326 325 324 323 323 323 324 321 318 315 311 310 308 306 303 299 296 292 289 286 283 282 280 279 278 275 272 270 269 268 267 265 263 259 257 255 251 248 246 244
330 330 330 327 326 326 327 325 324 323 321 319 316 314 312 310 308 305 302 299 295 291 287 285 285 283 280 279 276 274 271 270 268 267 265 262 259 256 254 251 248 245 244
332 334 333 330 328 329 328 327 326 324 322 319 317 315 313 311 310 309 306 302 299 295 291 289 288 286 283 281 279 277 272 270 270 268 265 262 259 256 254 250 247 245 244
336 336 336 335 333 332 330 328 327 324 322 320 319 318 317 316 314 312 309 305 302 299 295 290 289 289 287 284 281 279 274 271 270 269 266 263 259 256 253 250 247 245 244
339 337 338 337 334 334 334 332 330 329 328 326 325 324 322 320 319 317 313 309 305 302 298 294 293 291 288 285 282 280 276 271 270 269 267 264 260 256 253 249 246 245 243
Height
5835 5834 5832 5831 5830 5828 5827 5826 5824 5823 5822 5821 5819 5818 5817 5816 5815 5813 5812 5811 5810 5810 5809 5809 5809 5809 5809 5810 5811 5812 5813 5814 5816 5818 5819 5821 5822 5824 5826 5828 5829 5832 5834
5830 5829 5828 5826 5825 5823 5821 5820 5819 5818 5816 5815 5814 5813 5811 5810 5809 5808 5806 5805 5804 5804 5803 5803 5803 5803 5803 5803 5804 5805 5806 5808 5809 5811 5812 5814 5816 5817 5819 5822 5824 5826 5828
5825 5824 5823 5821 5820 5818 5816 5815 5813 5812 5811 5809 5808 5807 5806 5804 5803 5801 5800 5799 5798 5797 5797 5797 5797 5796 5796 5797 5797 5798 5799 5800 5802 5803 5805 5807 5809 5810 5813 5815 5817 5819 5822
5819 5818 5816 5815 5814 5812 5810 5809 5807 5806 5805 5803 5802 5800 5799 5798 5796 5795 5793 5792 5791 5791 5790 5790 5790 5790 5790 5790 5790 5791 5792 5792 5794 5795 5797 5799 5801 5803 5805 5808 5810 5813 5815
5814 5812 5810 5809 5807 5806 5804 5803 5801 5800 5799 5797 5795 5794 5792 5791 5790 5788 5787 5786 5785 5784 5783 5783 5783 5783 5783 5782 5783 5783 5784 5785 5786 5787 5789 5791 5793 5795 5797 5800 5803 5805 5808
5808 5806 5805 5803 5801 5800 5798 5796 5795 5793 5792 5790 5789 5787 5785 5784 5783 5781 5780 5779 5778 5777 5776 5775 5775 5775 5775 5775 5775 5776 5776 5777 5778 5779 5781 5783 5785 5787 5789 5792 5795 5797 5800
5802 5800 5798 5797 5794 5793 5791 5789 5788 5786 5784 5783 5781 5780 5778 5777 5775 5774 5773 5772 5771 5770 5769 5768 5767 5767 5767 5767 5767 5768 5768 5769 5770 5771 5772 5774 5776 5778 5781 5784 5786 5789 5792
5795 5793 5792 5790 5788 5786 5784 5782 5780 5778 5777 5775 5774 5772 5771 5770 5767 5766 5765 5764 5763 5762 5761 5760 5759 5759 5758 5758 5759 5759 5760 5760 5761 5762 5763 5765 5767 5769 5772 5774 5777 5780 5783
5787 5785 5784 5782 5780 5778 5776 5774 5772 5771 5769 5767 5766 5764 5763 5762 5760 5758 5757 5755 5754 5753 5752 5751 5751 5750 5750 5749 5750 5750 5751 5752 5752 5753 5755 5756 5758 5760 5762 5765 5768 5771 5774
5780 5778 5776 5774 5773 5771 5769 5767 5765 5763 5761 5760 5758 5756 5754 5753 5752 5751 5749 5747 5745 5744 5743 5742 5742 5741 5741 5740 5740 5741 5741 5742 5743 5744 5746 5747 5749 5751 5753 5756 5758 5761 5765
5773 5770 5769 5767 5765 5763 5761 5759 5757 5755 5753 5751 5749 5747 5745 5744 5742 5741 5740 5739 5737 5735 5734 5733 5733 5732 5732 5732 5732 5732 5732 5733 5734 5735 5736 5738 5739 5741 5743 5746 5749 5752 5755
5766 5763 5761 5760 5758 5756 5754 5751 5749 5747 5745 5743 5741 5739 5737 5735 5734 5732 5731 5730 5728 5727 5725 5725 5724 5723 5723 5723 5723 5723 5723 5724 5725 5726 5727 5728 5730 5731 5734 5736 5739 5742 5745
5759 5757 5755 5753 5750 5748 5746 5743 5741 5739 5737 5735 5733 5731 5729 5727 5725 5723 5721 5721 5719 5718 5717 5715 5714 5714 5713 5713 5714 5714 5714 5715 5715 5716 5717 5718 5720 5722 5724 5727 5729 5732 5735
5753 5750 5748 5746 5743 5741 5739 5736 5734 5732 5730 5727 5725 5723 5721 5718 5716 5714 5712 5711 5710 5709 5708 5707 5705 5704 5704 5704 5704 5704 5704 5705 5705 5706 5707 5709 5710 5712 5714 5717 5720 5722 5725
5745 5743 5741 5739 5737 5734 5732 5729 5727 5725 5722 5719 5717 5715 5712 5710 5707 5705 5703 5702 5701 5700 5699 5697 5696 5695 5694 5694 5694 5694 5694 5695 5695 5696 5697 5699 5700 5702 5704 5707 5710 5713 5715
5740 5737 5735 5733 5731 5728 5726 5723 5720 5717 5714 5711 5708 5706 5704 5701 5699 5697 5695 5693 5691 5690 5689 5688 5686 5686 5685 5684 5684 5684 5684 5684 5685 5686 5687 5688 5690 5691 5693 5696 5699 5702 5705
5735 5732 5729 5727 5725 5722 5719 5716 5713 5710 5707 5704 5700 5698 5695 5693 5690 5688 5686 5684 5682 5681 5679 5679 5677 5676 5675 5675 5674 5674 5674 5674 5675 5676 5676 5678 5679 5681 5683 5685 5688 5690 5694
5730 5727 5724 5722 5719 5716 5713 5710 5706 5703 5700 5697 5693 5690 5688 5685 5682 5680 5677 5675 5673 5671 5670 5669 5668 5667 5666 5665 5664 5664 5664 5664 5664 5665 5666 5667 5668 5670 5672 5674 5676 5679 5682
5725 5722 5719 5717 5714 5711 5708 5704 5700 5697 5694 5690 5687 5684 5681 5678 5675 5672 5669 5667 5664 5662 5661 5660 5659 5658 5657 5656 5655 5655 5654 5654 5654 5655 5655 5656 5658 5659 5660 5662 5665 5668 5671
5721 5718 5715 5712 5709 5706 5702 5699 5695 5691 5687 5684 5680 5677 5674 5671 5667 5664 5661 5658 5656 5654 5652 5650 5649 5648 5647 5646 5645 5644 5644 5644 5644 5645 5645 5646 5647 5648 5649 5651 5654 5657 5659
5716 5713 5710 5707 5704 5701 5698 5694 5690 5686 5682 5678 5674 5671 5667 5663 5660 5656 5653 5650 5647 5645 5643 5641 5640 5638 5637 5635 5634 5634 5634 5634 5634 5634 5635 5635 5636 5637 5638 5640 5643 5645 5648
5713 5710 5707 5704 5700 5697 5693 5689 5685 5681 5677 5673 5669 5665 5661 5657 5652 5649 5645 5642 5639 5636 5634 5632 5630 5628 5627 5626 5625 5624 5623 5623 5624 5625 5624 5624 5625 5626 5627 5629 5632 5634 5637
5710 5707 5704 5700 5697 5693 5689 5685 5681 5677 5672 5668 5663 5659 5654 5649 5645 5641 5637 5633 5629 5626 5624 5622 5620 5618 5616 5615 5614 5613 5612 5612 5613 5613 5613 5614 5614 5615 5616 5618 5621 5624 5627
5707 5704 5700 5697 5693 5689 5685 5681 5676 5671 5666 5661 5657 5652 5647 5642 5637 5633 5629 5625 5621 5617 5614 5612 5610 5608 5606 5604 5603 5602 5602 5602 5602 5602 5602 5603 5604 5605 5606 5608 5610 5613 5616
5704 5701 5697 5694 5690 5686 5681 5676 5672 5666 5661 5655 5650 5645 5640 5635 5630 5625 5621 5616 5612 5608 5605 5602 5600 5598 5596 5594 5593 5592 5592 5592 5592 5592 5591 5592 5593 5594 5596 5598 5600 5603 5606
5702 5699 5695 5691 5686 5682 5677 5672 5667 5661 5655 5650 5644 5639 5633 5628 5622 5617 5613 5608 5604 5600 5596 5594 5591 5589 5587 5585 5584 5583 5582 5582 5582 5582 5582 5582 5583 5584 5587 5588 5591 5593 5596